Mount Pleasant, TX

8:04 PM CST on November 21, 2019 (GMT -0600)
Mount Pleasant

Weather History for KOSA - October, 2019

Change the Weather History Date:

Tuesday, October 22, 2019

  Actual Average (WUND) Record (WUND)
Temperature  
Mean Temperature 57 °F -  
Max Temperature 73 °F - - (-1)
Min Temperature 42 °F - - (-1)
Degree Days  
Heating Degree Days 8    
Growing Degree Days 7 (Base 50)    
Moisture  
Dew Point 39 °F    
Average Humidity 61    
Maximum Humidity 93    
Minimum Humidity 20    
Precipitation  
Precipitation 0.04 in - - ()
Sea Level Pressure  
Sea Level Pressure 30.17 in    
Wind  
Wind Speed 2 mph ()    
Max Wind Speed 9 mph    
Max Gust Speed -    
Visibility 10.0 miles    
Events      
Averages and records for this station are not official NWS values.
T = Trace of Precipitation, MM = Missing Value Source: Averaged Metar Reports

Daily Weather History Graph

Daily Weather History Graph

Search for Another Location

Airport or City:

Astronomy

Oct. 22, 2019 Rise Set
Actual Time 7:29 AM CDT 6:38 PM CDT
Civil Twilight 7:04 AM CDT 7:03 PM CDT
Nautical Twilight 6:35 AM CDT 7:32 PM CDT
Astronomical Twilight 6:06 AM CDT 8:01 PM CDT
Moon 1:05 AM CDT 3:24 PM CDT
Length of Visible Light 11h 59m
Length of Day
11h 09m
Last Quarter, 37% of the Moon is Illuminated
Oct 22
Last Quarter
Oct 27
New
Nov 4
First Quarter
Nov 12
Full
Nov 19
Last Quarter

Hourly Weather History & Observations

Time (CDT) Temp. Windchill Dew Point Humidity Pressure Visibility Wind Dir Wind Speed Gust Speed Precip Events Conditions
12:15 AM 49.1 °F - 45.0 °F 86% 30.07 in 10.0 mi Calm Calm - N/A   Clear
12:35 AM 48.9 °F - 44.8 °F 86% 30.07 in 10.0 mi Calm Calm - N/A   Clear
12:55 AM 49.1 °F - 45.7 °F 88% 30.07 in 10.0 mi Calm Calm - N/A   Clear
1:15 AM 47.5 °F - 44.8 °F 90% 30.07 in 10.0 mi Calm Calm - N/A   Clear
1:55 AM 47.3 °F - 45.0 °F 92% 30.08 in 10.0 mi Calm Calm - N/A   Clear
2:15 AM 47.3 °F - 45.1 °F 92% 30.08 in 10.0 mi Calm Calm - N/A   Clear
2:35 AM 46.6 °F - 44.8 °F 93% 30.09 in 10.0 mi Calm Calm - N/A   Clear
2:55 AM 47.1 °F - 44.8 °F 92% 30.09 in 10.0 mi Calm Calm - N/A   Clear
3:15 AM 46.8 °F - 44.1 °F 90% 30.09 in 10.0 mi North 3.5 mph - N/A   Clear
3:35 AM 46.6 °F - 44.4 °F 92% 30.10 in 10.0 mi West 3.5 mph - N/A   Clear
3:55 AM 45.7 °F 44.4 °F 43.3 °F 92% 30.09 in 10.0 mi West 3.5 mph - N/A   Clear
4:15 AM 44.4 °F - 42.1 °F 91% 30.10 in 10.0 mi Calm Calm - N/A   Clear
4:35 AM 46.2 °F - 40.1 °F 79% 30.10 in 10.0 mi Calm Calm - N/A   Clear
4:55 AM 42.8 °F 41.1 °F 40.3 °F 91% 30.10 in 10.0 mi NNE 3.5 mph - N/A   Clear
5:15 AM 42.3 °F - 39.9 °F 91% 30.12 in 10.0 mi Calm Calm - N/A   Clear
5:35 AM 43.3 °F 40.7 °F 40.6 °F 90% 30.13 in 10.0 mi WSW 4.6 mph - N/A   Clear
5:55 AM 45.9 °F 44.6 °F 41.0 °F 83% 30.15 in 10.0 mi WNW 3.5 mph - N/A   Clear
6:15 AM 46.0 °F 43.9 °F 41.2 °F 83% 30.16 in 10.0 mi West 4.6 mph - N/A   Clear
6:35 AM 47.8 °F - 39.4 °F 72% 30.17 in 10.0 mi WNW 3.5 mph - N/A   Clear
6:55 AM 44.4 °F - 39.4 °F 82% 30.18 in 10.0 mi Calm Calm - N/A   Clear
7:15 AM 46.6 °F - 39.0 °F 75% 30.19 in 10.0 mi Calm Calm - N/A   Clear
7:35 AM 44.8 °F - 38.8 °F 80% 30.19 in 10.0 mi Calm Calm - N/A   Clear
7:55 AM 42.8 °F - 39.9 °F 90% 30.20 in 10.0 mi Calm Calm - N/A   Clear
8:15 AM 45.9 °F 44.6 °F 41.5 °F 85% 30.20 in 10.0 mi WSW 3.5 mph - N/A   Clear
8:35 AM 49.3 °F - 41.5 °F 75% 30.21 in 10.0 mi NW 4.6 mph - N/A   Clear
8:55 AM 51.3 °F - 40.3 °F 66% 30.23 in 10.0 mi WNW 4.6 mph - N/A   Clear
9:15 AM 53.6 °F - 40.3 °F 61% 30.24 in 10.0 mi WNW 5.8 mph - N/A   Clear
9:35 AM 55.4 °F - 40.1 °F 56% 30.25 in 10.0 mi NW 5.8 mph - N/A   Clear
9:55 AM 58.3 °F - 40.5 °F 52% 30.26 in 10.0 mi NW 5.8 mph - N/A   Clear
10:15 AM 59.9 °F - 36.9 °F 42% 30.26 in 10.0 mi NW 9.2 mph - N/A   Clear
10:35 AM 61.9 °F - 34.9 °F 36% 30.26 in 10.0 mi NNW 6.9 mph - N/A   Clear
10:55 AM 63.5 °F - 32.4 °F 31% 30.26 in 10.0 mi NW 6.9 mph - N/A   Clear
11:15 AM 63.9 °F - 30.6 °F 29% 30.27 in 10.0 mi NW 8.1 mph - N/A   Clear
11:35 AM 65.1 °F - 28.4 °F 25% 30.27 in 10.0 mi NW 4.6 mph - N/A   Clear
11:55 AM 65.5 °F - 28.0 °F 24% 30.28 in 10.0 mi WNW 8.1 mph - N/A   Clear
12:15 PM 66.4 °F - 28.0 °F 24% 30.27 in 10.0 mi NNW 8.1 mph - N/A   Clear
12:35 PM 66.9 °F - 28.0 °F 23% 30.27 in 10.0 mi NW 6.9 mph - N/A   Clear
12:55 PM 67.5 °F - 28.8 °F 24% 30.26 in 10.0 mi WNW 6.9 mph - N/A   Clear
1:15 PM - - - N/A% - - North - - N/A   Unknown
1:35 PM 70.7 °F - 30.6 °F 23% 30.24 in 10.0 mi Calm Calm - 0.04 in   Clear
1:55 PM 71.2 °F - 28.6 °F 20% 30.23 in 10.0 mi North - - 0.04 in   Clear
2:15 PM 72.1 °F - 30.0 °F 21% 30.21 in 10.0 mi NNW 5.8 mph - N/A   Clear
2:35 PM 72.0 °F - 29.3 °F 21% 30.21 in 10.0 mi WNW 6.9 mph - N/A   Clear
2:55 PM 72.1 °F - 28.9 °F 20% 30.20 in 10.0 mi NNW 6.9 mph - N/A   Clear
3:15 PM 71.8 °F - 28.8 °F 20% 30.20 in 10.0 mi NNW 5.8 mph - N/A   Clear
3:35 PM 72.0 °F - 28.9 °F 20% 30.19 in 7.0 mi Calm Calm - N/A   Clear
3:55 PM 72.9 °F - 30.7 °F 21% 30.18 in 10.0 mi NW 8.1 mph - N/A   Clear
4:15 PM 72.5 °F - 30.0 °F 21% 30.18 in 10.0 mi NW 6.9 mph - N/A   Clear
4:35 PM 72.1 °F - 28.4 °F 20% 30.17 in 10.0 mi West 3.5 mph - N/A   Clear
5:15 PM 72.0 °F - 30.7 °F 22% 30.16 in 10.0 mi Calm Calm - N/A   Clear
5:35 PM 71.6 °F - 31.3 °F 23% 30.15 in 10.0 mi Calm Calm - N/A   Clear
5:55 PM 71.1 °F - 31.5 °F 23% 30.15 in 10.0 mi Calm Calm - N/A   Clear
6:15 PM 69.8 °F - 34.7 °F 27% 30.15 in 10.0 mi Calm Calm - N/A   Clear
6:35 PM 68.0 °F - 35.8 °F 31% 30.15 in 10.0 mi Calm Calm - N/A   Clear
6:55 PM 65.1 °F - 40.5 °F 40% 30.15 in 10.0 mi Calm Calm - N/A   Clear
7:15 PM 59.7 °F - 41.4 °F 51% 30.15 in 10.0 mi Calm Calm - N/A   Clear
7:35 PM 60.8 °F - 44.1 °F 54% 30.15 in 10.0 mi Calm Calm - N/A   Clear
7:55 PM 56.5 °F - 46.0 °F 68% 30.15 in 10.0 mi Calm Calm - N/A   Clear
8:15 PM 55.0 °F - 47.1 °F 75% 30.15 in 10.0 mi Calm Calm - N/A   Clear
8:35 PM 53.8 °F - 47.7 °F 80% 30.15 in 10.0 mi Calm Calm - N/A   Clear
8:55 PM 53.2 °F - 47.8 °F 82% 30.15 in 10.0 mi Calm Calm - N/A   Clear
9:15 PM 52.0 °F - 47.7 °F 85% 30.16 in 10.0 mi Calm Calm - N/A   Clear
9:35 PM 50.4 °F - 47.5 °F 90% 30.15 in 10.0 mi Calm Calm - N/A   Clear
9:55 PM 51.4 °F - 47.7 °F 87% 30.15 in 10.0 mi Calm Calm - N/A   Clear
10:15 PM 50.2 °F - 46.8 °F 88% 30.16 in 10.0 mi Calm Calm - N/A   Clear
10:35 PM 50.5 °F - 47.3 °F 89% 30.15 in 10.0 mi Calm Calm - N/A   Clear
10:55 PM 50.4 °F - 46.9 °F 88% 30.15 in 10.0 mi Calm Calm - N/A   Clear
11:15 PM 48.9 °F - 46.6 °F 92% 30.15 in 10.0 mi Calm Calm - N/A   Clear
11:35 PM 49.1 °F - 46.6 °F 91% 30.15 in 10.0 mi Calm Calm - N/A   Clear
11:55 PM 48.6 °F - 46.4 °F 92% 30.15 in 10.0 mi Calm Calm - N/A   Clear